Location: Melizzano
(41.1500°N, 14.5000°E)
Time: 04:33:53
(UTC+00:00)

Cosmos 1709 Rocket - Pass Details

Date: 28 September 2021
Orbit: 947 x 1002 km, 82.9° (Epoch: 16 October)

Event Time Altitude Azimuth Distance (km) Brightness Sun altitude
Rises 04:24:30 0° 345° (NNW) 3,627 6.9 -6.7°
Reaches altitude 10° 04:27:08 10° 338° (NNW) 2,679 6.1 -6.2°
Maximum altitude 04:32:45 40° 271° (W) 1,375 4.4 -5.1°
Drops below altitude 10° 04:38:23 10° 204° (SSW) 2,683 6.1 -4.1°
Sets 04:41:02 0° 197° (SSW) 3,633 6.8 -3.6°
